SCP
1 0 0 0 0 0 0 0 0 0 0 0 0 0 0 0 0 0 0 0 0 0 0 0 0 0 0 0 1 1 0 0 1 1 1 1 1 1 1 1 1 1 1 1 1 1 1 1 1
1 0 0 0 0 0 0 0 0 0 0 0 0 0 0 0 0 0 0 0 0 0 0 0 0 0 0 0 1 1 0 0 0 0 0 1 1 1 0 0 1 1 1 1 1 1 1 1 1
1 0 0 0 0 0 0 0 0 0 0 0 0 0 0 0 0 0 0 0 0 0 0 0 0 0 0 0 0 0 0 0 0 0 0 0 0 0 0 0 0 0 1 1 1 1 1 1 1
0 0 0 0 0 0 0 0 0 0 0 0 0 0 0 0 0 0 0 0 0 0 0 0 0 0 0 0 0 0 0 0 0 0 0 0 0 0 0 0 0 0 0 0 1 1 1 1 1
0 0 0 0 0 0 0 0 0 0 0 0 0 0 0 0 0 0 0 0 0 0 0 0 0 0 0 0 0 0 0 0 0 0 0 0 0 0 0 0 0 0 0 0 0 1 1 0 0
0 0 0 0 0 0 0 0 0 0 0 0 0 0 0 0 0 0 0 0 0 0 0 0 0 0 0 0 0 0 0 0 0 0 0 0 0 0 0 0 0 0 0 0 0 0 0 0 0
0 0 0 0 0 0 0 0 0 0 0 0 0 0 0 0 0 0 0 0 0 0 0 0 0 0 0 0 0 0 0 0 0 0 0 0 0 0 0 0 0 0 0 0 0 0 0 0 0
0 0 0 0 0 0 0 0 0 0 0 0 0 0 0 0 0 0 0 0 0 0 0 0 0 0 0 0 0 0 0 0 0 0 0 0 0 0 0 0 0 0 0 0 0 0 0 0 0
0 0 0 0 0 0 0 0 0 0 0 0 0 0 0 0 0 0 0 0 0 0 0 0 0 0 0 0 0 0 0 0 0 0 0 0 0 0 0 0 0 0 0 0 0 0 0 0 0
0 0 0 0 0 0 0 0 0 0 0 0 0 0 0 0 0 0 0 0 0 0 0 0 0 0 0 0 0 0 0 0 0 0 0 0 0 0 0 0 0 0 0 0 0 0 0 0 0
1 0 0 1 1 1 1 0 0 0 0 0 0 0 0 0 0 0 0 0 0 0 0 0 0 0 0 0 0 0 0 0 0 0 0 0 0 0 0 0 0 0 0 0 0 0 0 0 0
1 1 1 1 1 1 0 0 0 0 0 0 0 0 0 0 0 0 0 0 0 0 0 0 0 0 0 0 0 0 0 0 0 0 0 0 0 0 0 0 0 0 0 0 0 0 0 0 0
1 1 1 1 1 0 0 0 0 0 0 0 0 0 0 0 0 0 0 0 0 0 0 0 0 0 0 0 0 0 0 0 0 0 0 0 0 0 0 0 0 0 0 0 0 0 0 0 0
1 1 1 0 0 0 0 0 0 0 0 0 0 0 0 0 0 0 0 0 0 0 0 0 0 0 0 0 0 0 0 0 0 0 0 0 0 0 0 0 0 0 0 0 0 0 0 0 0
1 1 0 0 0 0 0 0 0 0 0 0 0 0 0 0 0 0 0 0 0 0 0 0 0 0 0 0 0 0 0 0 0 0 0 0 0 0 0 0 0 0 0 0 0 0 0 0 0
1 0 0 0 0 0 0 0 0 0 0 0 0 0 0 0 0 0 0 0 0 0 0 0 0 0 0 0 0 0 0 0 0 0 0 0 0 0 0 0 0 0 0 0 0 0 0 0 0
0 0 0 0 0 0 0 0 0 0 0 0 0 0 0 0 0 0 0 0 0 0 0 0 0 0 0 0 0 0 0 0 0 0 0 0 0 0 0 0 0 0 0 0 0 0 0 0 0
0 0 0 0 0 0 0 0 0 0 0 0 0 0 0 0 0 0 0 0 0 0 0 0 0 0 0 0 0 0 0 0 0 0 0 0 0 0 0 0 0 0 0 0 0 0 0 0 0
0 0 0 0 0 0 0 0 0 0 0 0 0 0 0 0 0 0 0 0 0 0 0 0 0 0 0 0 0 0 0 0 0 0 0 0 0 0 0 0 0 0 0 0 0 0 0 0 0
1 0 0 0 0 0 0 0 0 0 0 0 0 0 0 0 0 0 0 0 0 0 0 0 0 0 0 0 0 0 0 0 0 0 0 0 0 0 0 0 0 0 0 0 0 0 0 0 0
1 0 0 0 0 0 0 0 0 0 0 0 0 0 0 0 0 0 0 0 0 0 0 0 0 0 0 0 0 0 0 0 0 0 0 0 0 0 0 0 0 0 0 0 0 0 0 0 0
0 0 0 0 0 0 0 0 0 0 0 0 0 0 0 0 0 0 0 0 0 0 0 0 0 0 0 0 0 0 0 0 0 0 0 0 0 0 0 0 0 0 0 0 0 0 0 0 0
0 0 0 0 0 0 0 0 0 0 0 0 0 0 0 0 0 0 0 0 0 0 0 0 0 0 0 0 0 0 0 0 0 0 0 0 0 0 0 0 0 0 0 0 0 0 0 0 0
1 1 0 0 0 0 0 0 0 0 0 0 0 0 0 0 0 0 0 0 0 0 0 0 0 0 0 0 0 0 0 0 0 0 0 0 0 0 0 0 0 0 0 0 0 0 0 0 0
1 0 0 0 0 0 0 0 0 0 0 0 0 0 0 0 0 0 0 0 0 0 0 0 0 0 0 0 0 0 0 0 0 0 0 0 0 0 0 0 0 0 0 0 0 0 0 0 0
0 0 0 0 0 0 0 0 0 0 0 0 0 0 0 0 0 0 0 0 0 0 0 0 0 0 0 0 0 0 0 0 0 0 0 0 0 0 0 0 0 0 0 0 0 0 0 0 0
0 0 0 0 0 0 0 0 0 0 0 0 0 0 0 0 0 0 0 0 0 0 0 0 0 0 0 0 0 0 0 0 0 0 0 0 0 0 0 0 0 0 0 0 0 0 0 0 0
0 0 0 0 0 0 0 0 0 0 0 0 0 0 0 0 0 0 0 0 0 0 0 0 0 0 0 0 0 0 0 0 0 0 0 0 0 0 0 0 0 0 0 0 0 0 0 0 0
0 0 0 0 0 0 0 0 0 0 0 0 0 0 0 0 0 0 0 0 0 0 0 0 0 0 0 0 0 0 0 0 0 0 0 0 0 0 0 0 0 0 0 0 0 0 0 0 0
0 0 0 0 0 0 0 0 0 0 0 0 0 0 0 0 0 0 0 0 0 0 0 0 0 0 0 0 0 0 0 0 0 0 0 0 0 0 0 0 0 0 0 0 0 0 0 0 0
Wind_Speed
3 1 2 2 3 3 2 1 1 1 2 4 8 10 8 7 5 7 3 9 11 8 6 8 10 10 10 9 9 9 9 9 9 8 8 8 8 8 7 7 7 7 6 6 5 5 5 5 5
0 0 2 3 3 3 1 1 1 2 5 6 8 9 8 7 7 8 5 9 10 8 6 7 10 10 10 10 9 9 9 9 8 8 8 8 8 7 7 7 7 6 6 5 5 4 4 4 4
1 1 2 3 2 2 2 2 2 3 4 4 5 6 6 5 6 5 8 11 10 8 6 8 11 11 10 10 9 9 9 8 8 8 7 7 7 7 7 6 6 6 6 5 4 4 3 3 3
1 3 3 3 2 1 4 3 3 4 5 5 6 6 4 4 5 9 13 12 10 7 6 8 11 11 10 9 9 8 8 8 7 7 6 6 5 5 5 5 5 5 5 5 4 3 3 3 3
3 3 4 2 1 1 1 2 2 4 4 6 9 7 4 4 11 14 13 12 11 7 5 7 11 11 10 9 9 8 7 7 6 5 5 4 4 3 3 3 3 4 4 4 4 3 3 3 3
3 3 3 1 1 0 1 0 4 8 9 9 9 7 3 5 10 11 11 10 10 9 6 7 11 11 10 10 9 8 6 5 4 3 2 2 2 1 1 1 2 2 3 4 4 4 4 4 4
3 3 1 1 2 0 1 2 4 6 6 6 7 7 4 4 7 10 10 9 8 8 7 5 5 7 10 10 9 7 6 4 2 1 1 2 2 2 3 3 3 3 3 4 4 5 5 5 5
3 3 1 1 2 2 1 2 4 6 5 7 6 8 6 6 8 9 9 8 7 6 6 5 4 4 4 4 7 7 5 4 2 2 3 3 3 4 4 5 5 4 4 5 5 6 6 6 6
3 4 1 2 3 2 1 3 2 4 6 3 3 6 9 10 10 9 7 5 5 6 4 5 5 4 3 3 5 4 4 3 2 3 5 4 2 3 3 5 6 5 5 5 6 7 8 8 7
3 3 3 2 3 3 2 4 4 4 6 6 7 8 9 9 10 9 8 7 6 6 5 5 6 5 4 4 2 1 1 1 2 2 2 2 2 2 2 3 4 4 6 6 7 7 8 6 3
3 4 4 3 3 2 2 2 3 8 5 8 13 13 10 9 8 8 7 6 6 6 6 5 6 5 5 2 1 1 0 0 1 1 1 1 2 2 2 1 3 4 4 3 5 5 3 3 3
2 2 4 3 3 2 2 1 3 5 8 11 14 13 11 9 8 8 7 6 5 5 5 6 6 5 4 3 2 2 1 1 0 1 2 2 2 2 2 2 2 2 2 2 2 2 3 4 3
2 2 2 2 3 4 3 2 4 4 8 11 12 11 10 10 7 6 6 6 5 5 5 5 6 5 4 3 2 2 2 1 1 2 3 3 2 2 2 2 2 2 2 2 2 3 4 4 4
3 3 2 3 3 2 3 2 4 4 9 12 12 10 10 10 9 7 7 6 5 5 5 4 5 5 5 3 3 2 2 2 2 3 3 4 3 2 3 3 3 3 2 2 2 3 3 3 2
3 2 1 2 3 2 4 2 3 6 10 11 10 9 8 8 8 9 9 8 7 6 5 5 5 5 5 5 4 3 3 3 3 3 4 4 4 3 3 2 3 3 3 3 3 3 3 3 3
2 2 1 3 2 2 6 3 4 6 9 9 8 7 6 6 8 8 9 8 7 6 5 5 6 6 5 5 4 3 3 3 3 2 3 4 4 4 3 3 3 3 3 3 2 3 3 3 3
2 3 3 2 2 2 4 4 4 5 8 7 6 6 6 5 5 6 7 8 8 7 6 6 6 6 5 5 4 4 3 3 2 2 2 3 4 4 3 2 2 3 3 3 3 2 2 2 3
4 4 3 3 2 4 3 3 2 3 6 6 6 5 6 6 5 6 7 7 7 6 6 7 6 5 5 4 4 3 3 2 2 1 2 3 3 3 3 2 3 3 3 3 3 3 3 2 2
4 3 4 3 2 4 4 3 2 2 4 4 5 5 6 5 4 4 6 7 6 5 6 6 6 4 4 3 3 2 1 1 1 1 1 2 2 3 3 3 3 3 3 3 3 2 3 3 2
3 3 2 1 2 4 4 1 0 0 3 5 6 7 7 5 3 3 5 6 6 6 6 6 6 5 4 3 2 2 2 1 0 1 1 1 1 2 2 3 2 2 2 4 4 3 2 3 3
4 5 5 4 3 3 5 3 2 1 2 4 4 5 6 8 7 5 5 5 6 6 6 6 5 5 4 4 3 3 3 3 2 2 1 2 1 1 2 2 2 2 2 2 2 2 3 2 3
5 5 6 6 5 1 3 3 2 1 3 2 3 5 5 5 5 5 5 4 5 5 4 5 5 5 4 4 4 4 2 1 1 1 1 2 2 1 1 1 2 2 2 2 2 2 1 2 2
4 5 6 5 4 3 2 5 3 1 3 2 4 5 5 5 6 6 5 5 4 4 4 4 5 4 4 4 5 4 2 1 1 0 1 1 2 2 1 1 1 2 1 1 2 2 2 1 1
6 7 6 5 3 1 3 4 4 5 7 5 4 5 6 5 5 5 4 4 4 4 4 4 5 3 3 4 3 3 3 1 0 0 1 1 1 2 2 1 0 1 1 1 1 1 2 1 1
7 7 4 2 1 3 2 3 6 6 7 8 9 7 6 5 6 6 5 5 4 4 4 4 5 3 2 3 2 3 3 2 2 1 1 1 1 1 2 1 1 1 1 1 1 1 2 1 1
4 7 7 5 4 2 0 3 5 3 5 6 7 7 6 6 5 6 5 5 5 5 4 4 4 3 2 2 2 1 2 1 1 2 1 1 1 2 2 2 2 2 1 1 1 1 1 1 1
6 3 5 6 3 2 1 1 3 3 6 6 7 7 6 6 6 5 5 5 4 4 3 4 4 3 2 2 1 1 1 1 1 1 1 1 1 1 1 1 1 2 2 1 0 1 1 1 1
7 8 5 5 5 2 2 4 6 10 10 8 8 8 6 6 6 5 5 4 3 3 3 4 4 3 2 2 1 1 0 0 1 0 0 1 2 1 1 1 1 2 2 2 1 1 1 1 1
4 4 5 4 4 6 4 7 8 14 13 13 10 9 8 7 7 5 4 4 4 4 4 4 3 3 3 2 2 2 2 1 2 1 1 1 1 1 1 1 1 2 2 2 1 2 2 2 2
6 6 7 6 4 4 4 7 4 12 11 12 10 8 7 7 6 5 5 4 4 4 3 3 3 3 2 2 3 2 2 3 3 2 3 2 2 2 2 1 1 2 2 2 1 2 2 2 3
Wind_Direction
270 332 95 66 56 55 59 286 177 100 62 57 74 79 79 60 84 121 136 129 126 123 117 113 111 108 105 101 97 92 88 86 83 81 79 75 72 70 69 65 60 57 55 55 55 56 52 49 45
289 69 71 59 77 86 54 249 130 133 135 122 86 80 77 73 81 105 121 131 127 124 117 113 110 106 103 99 95 92 89 85 82 79 76 73 69 66 63 59 52 46 44 44 44 45 43 39 33
294 158 86 68 78 136 161 232 166 118 127 107 82 61 71 98 104 116 138 135 123 118 115 118 114 110 106 103 99 95 92 88 84 80 75 71 68 64 59 54 49 41 36 33 32 32 24 18 11
51 43 55 71 84 172 169 204 150 116 76 71 97 70 59 90 112 128 136 132 123 122 122 125 121 118 115 111 107 101 97 92 87 81 76 71 66 61 57 51 45 35 26 20 18 12 358 356 350
68 68 55 61 107 184 192 196 161 111 83 84 92 89 67 65 113 130 134 133 131 133 134 134 131 129 125 120 114 109 105 100 93 85 80 72 63 55 47 42 37 26 14 5 359 350 337 329 323
53 63 75 96 124 22 294 261 84 92 109 105 100 103 100 116 123 138 140 139 141 145 148 144 144 142 138 134 130 127 124 120 112 96 73 51 35 15 1 12 2 358 355 349 343 333 319 310 301
101 88 128 161 132 70 156 75 105 127 133 129 123 104 123 135 140 143 142 140 146 152 153 155 157 153 152 149 147 147 146 149 158 173 329 332 330 301 269 266 282 306 331 332 326 317 310 305 300
126 100 69 86 135 187 270 73 123 126 118 126 120 129 155 169 146 135 137 143 150 156 162 166 167 166 166 165 166 166 169 183 215 261 286 302 311 305 279 263 270 286 311 316 316 311 306 302 297
98 81 133 182 171 194 159 98 77 64 100 93 93 131 149 145 132 127 131 136 154 165 176 174 178 187 187 192 197 189 196 221 264 305 312 322 324 317 302 275 270 284 300 310 313 313 313 309 302
106 133 191 202 187 172 167 141 134 85 84 85 89 107 129 134 133 138 148 155 168 176 187 186 184 191 199 208 187 212 250 305 310 307 318 331 326 325 334 301 302 312 320 321 331 332 329 325 312
146 169 183 191 201 177 156 126 122 121 128 153 146 147 147 142 145 152 162 167 175 176 177 177 180 183 188 202 171 171 336 333 322 318 315 0 16 2 13 1 345 343 345 340 343 348 343 330 313
141 179 174 179 174 149 155 137 124 148 174 166 155 153 152 156 163 167 171 171 160 151 160 163 164 161 166 150 148 143 134 123 92 10 21 46 33 17 13 17 356 352 345 348 345 342 341 337 327
152 171 163 181 167 182 163 133 125 144 147 148 150 153 159 169 174 175 166 160 153 140 139 144 146 141 133 119 119 112 123 119 68 35 29 53 53 31 23 21 14 359 359 4 357 358 353 349 345
182 154 159 175 204 194 141 134 98 150 145 150 156 165 171 173 172 162 157 160 158 147 144 139 128 127 116 107 100 102 103 90 65 49 46 55 60 51 37 25 14 6 358 1 7 6 357 343 345
143 132 150 209 193 184 111 66 147 168 152 156 166 174 176 175 170 168 169 169 166 159 148 140 130 119 110 104 100 101 101 91 73 57 51 54 55 52 45 30 13 353 354 7 10 8 6 2 0
104 84 144 258 181 144 121 175 218 165 148 160 171 176 172 176 174 172 168 167 162 152 148 143 129 117 112 109 103 97 92 90 81 70 55 50 48 51 46 30 6 352 8 14 11 10 5 357 354
99 150 191 254 196 153 131 184 225 160 149 162 169 172 165 165 171 169 167 164 160 156 148 131 122 124 118 107 96 89 86 84 85 69 55 44 42 45 49 33 6 9 23 15 5 13 7 352 347
177 174 183 200 209 146 137 180 197 150 150 167 168 169 161 164 185 174 163 161 156 148 137 127 123 122 112 94 79 64 60 59 62 59 51 46 37 44 44 30 11 19 28 13 6 359 358 349 342
165 175 180 202 191 125 140 149 171 163 140 156 156 164 160 171 186 158 150 147 141 135 134 134 132 133 120 103 97 89 78 54 34 331 36 47 43 49 50 32 18 21 27 12 6 5 1 352 357
186 179 180 155 144 124 120 97 332 172 169 173 167 165 159 159 143 140 138 136 140 147 148 142 143 141 135 131 137 142 139 148 216 327 359 6 34 37 57 47 32 23 26 17 16 25 12 353 12
212 185 184 159 104 86 95 28 5 360 82 103 139 154 152 157 157 155 145 142 141 149 157 156 156 145 138 125 103 75 54 37 21 5 342 323 341 14 39 42 44 32 43 17 5 26 39 8 356
207 196 176 155 125 158 130 131 288 140 87 101 137 143 151 151 145 150 143 140 153 162 154 148 150 143 138 128 120 119 116 131 246 246 273 307 317 338 12 38 38 32 30 9 347 31 35 50 7
183 141 136 130 115 84 82 120 264 186 136 177 166 151 151 151 148 149 146 147 147 145 142 141 140 140 143 135 132 125 126 182 253 317 332 329 324 320 325 9 35 27 11 350 355 9 18 47 60
126 92 68 52 69 109 201 139 225 215 187 173 163 150 148 147 139 134 126 117 109 111 117 126 133 139 142 136 135 142 152 161 121 341 312 313 314 309 305 309 354 7 357 335 339 359 5 8 38
102 104 84 51 42 239 207 152 227 219 186 164 159 151 141 140 135 130 124 121 118 115 117 124 128 132 142 139 149 166 176 178 191 217 233 252 290 281 279 272 253 272 276 296 342 8 355 353 9
150 138 149 161 183 250 13 209 253 194 157 141 141 137 131 134 139 142 143 139 134 130 124 125 125 125 133 146 170 172 172 173 202 212 208 218 234 247 256 247 243 249 255 288 345 358 324 343 349
140 163 158 128 133 123 249 316 358 94 129 134 134 131 140 145 142 139 134 131 133 130 131 136 132 120 128 145 147 132 169 175 204 217 200 215 245 255 253 244 248 260 264 266 279 312 306 333 319
149 152 121 124 144 159 209 206 199 184 174 163 155 156 155 145 134 128 126 128 127 125 117 112 120 125 118 113 107 92 71 140 204 183 270 271 274 275 275 287 280 280 279 277 276 287 283 290 291
150 137 129 128 149 146 185 248 213 187 176 168 171 168 158 150 145 138 133 128 121 108 106 106 106 98 93 97 82 66 47 33 40 26 324 299 302 296 286 284 287 281 284 289 269 269 279 273 287
166 164 148 148 186 167 168 255 231 175 170 162 161 161 155 148 147 142 133 120 112 110 108 108 103 100 104 100 86 73 54 40 36 11 341 342 338 320 312 313 310 295 289 278 247 268 277 261 264